Regional Weather Roundup
Issued by NWS Kansas City/Pleasant Hill, MO

Home | Current Version | Previous Version | Text Only | Print | Product List | Glossary On
Versions: 1 2 3 4 5 6 7 8 9 10 11 12 13 14 15 16 17 18 19 20 21 22 23 24 25 26 27 28 29 30 31 32 33 34 35 36 37 38 39 40 41 42 43 44 45 46 47 48 49 50
000
ASUS43 KEAX 192310
RWREAX

WEATHER ROUNDUP FOR EASTERN KANSAS AND NORTHWEST MISSOURI
NATIONAL WEATHER SERVICE KANSAS CITY/PLEASANT HILL MO
500 PM CST FRI DEC 19 2014

KSZ040-057-103>105-MOZ028-029-037-043-200000-
...KANSAS CITY METROPOLITAN AREA...

CITY           SKY/WX    TMP DP  RH WIND       PRES   REMARKS
K.C. INTL      CLOUDY    32  30  92 CALM      30.20S FOG
K.C. DOWNTOWN  CLOUDY    35  30  82 CALM      30.21S
LEES SUMMIT    CLOUDY    35  31  85 CALM      30.20F
OLATHE - IXD   CLOUDY    32  31  96 CALM      30.20S
OLATHE - OJC   CLOUDY    33  31  92 CALM      30.19S
LAWRENCE       CLOUDY    33  28  81 SW10      30.21S WCI  25

$$

MOZ001>008-011>017-020>025-030>033-038>040-044>046-053-054-200000-
...NORTHERN AND CENTRAL MISSOURI...

CITY           SKY/WX    TMP DP  RH WIND       PRES   REMARKS
ST. JOSEPH     CLOUDY    32  29  88 SW8       30.22S WCI  25
MOSBY            N/A     32  32 100 CALM      30.22S
WARRENSBURG    CLOUDY    34  32  93 N3        30.21S FOG
WHITEMAN AFB   CLOUDY    37  34  87 E5        30.20F WCI  34
CLINTON        CLOUDY    37  36  93 SE3       30.22R
SEDALIA        CLOUDY    37  34  89 SE5       30.22S WCI  33
WARSAW         NOT AVBL
MARSHALL       CLOUDY    39  36  87 CALM      30.23S FOG
CHILLICOTHE      N/A     34  31  88 CALM      30.23S
MOBERLY        CLOUDY    34  28  80 E6        30.23F WCI  29
KIRKSVILLE     CLOUDY    32  30  92 E7        30.23R FOG     WCI  26

$$

MOZ041-047>049-056>058-063>065-088>090-097-200000-
...EASTERN AND SOUTHERN MISSOURI...

CITY           SKY/WX    TMP DP  RH WIND       PRES   REMARKS
ST. LOUIS INTL CLOUDY    38  28  67 E6        30.27S WCI  33
SPIRIT OF STL  CLOUDY    36  29  75 CALM      30.26S HAZE
COLUMBIA       CLOUDY    36  32  85 E6        30.23R WCI  31
JEFFERSON CITY CLOUDY    38  31  76 E6        30.24S WCI  33
MEXICO         CLOUDY   N/A N/A N/A NE5       30.24  HAZE
HANNIBAL       CLOUDY    34  25  69 E5        30.25F WCI  30
ROLLA          CLOUDY    35  31  85 E5        30.20R WCI  31
OSAGE BEACH    CLOUDY    37  34  87 E3        30.21S
SPRINGFIELD    CLOUDY    39  36  89 SE7       30.18R WCI  34
BRANSON        FOG       37  36  93 SE3       30.19S VSB 1
NEVADA         CLOUDY    36  36 100 NE3       30.21S FOG
JOPLIN         CLOUDY    39  38  96 CALM      30.20R FOG
WEST PLAINS    CLOUDY    35  33  92 NE3       30.20S

$$

IAZ060-094-KSZ022-034>040-054-083-096-NEZ052-066-093-200000-
...KANSAS...SOUTHEAST NEBRASKA AND IOWA...

CITY           SKY/WX    TMP DP  RH WIND       PRES   REMARKS
TOPEKA         CLOUDY    33  27  78 W3        30.21S
MANHATTAN      CLOUDY    34  30  85 SW3       30.18S
EMPORIA        CLOUDY    32  29  88 CALM      30.18F
CHANUTE        CLOUDY    35  34  96 N3        30.21R FOG
WICHITA        CLOUDY    37  32  82 S6        30.17F WCI  32
OMAHA          DRIZZLE   32  29  88 S9        30.17F FOG     WCI  24
LINCOLN        CLOUDY    34  29  82 S9        30.14S WCI  27
FALLS CITY     CLOUDY    31  27  85 S6        30.19S WCI  25
LAMONI         CLOUDY    31  29  92 S6        30.19F WCI  25
DES MOINES     CLOUDY    33  28  81 SE6       30.21F WCI  28

$$



USA.gov is the U.S. government's official web portal to all federal, state and local government web resources and services.